User: anonymous   Login
Location: Albany
(35.0000°S, 118.0000°E)
Time: 11:35:52
(UTC-05:00)
Language:

Cosmos 1346 Rocket - Orbit

View from above orbital plane
View from above orbital plane
View from above satellite
View from above satellite

Ground track
Ground track

The orbit data is extracted from the following two-line orbital elements,

1 13121U 82027B   15060.24108744  .00004172  00000-0  27864-3 0  9993
2 13121 081.1692 001.9728 0029741 059.3969 301.0181 15.06437384790571
Epoch (UTC): 01 March 2015 05:47:09
Eccentricity: 0.0029741
inclination: 81.1692°
perigee height: 526 km
apogee height: 567 km
right ascension of ascending node: 1.9728°
argument of perigee: 59.3969°
revolutions per day: 15.06437384
mean anomaly at epoch: 301.0181°
orbit number at epoch: 79057

The dashed part of the orbit path shows where the satellite is in the earth's shadow,  

DLR